Location: Eaton
(41.3139°N, 82.0207°W)
Time: 07:22:22
(UTC+00:00)

Cosmos 2278 Rocket - Pass Details

Date: 17 June 2021
Orbit: 840 x 846 km, 71.0° (Epoch: 27 July)

Event Time Altitude Azimuth Distance (km) Brightness Sun altitude
Rises 04:56:28 0° 335° (NNW) 3,409 6.6 -24.9°
Reaches altitude 10° 04:58:55 10° 334° (NNW) 2,471 5.6 -24.9°
Maximum altitude 05:04:35 79° 248° (WSW) 863 2.1 -25.1°
Enters shadow 05:05:18 67° 186° (S) 911 2.0 -25.1°
